Prudhoe Bay, AK

10:22 AM AKST on December 07, 2016 (GMT -0900)
Deadhorse

Weather History for PASC - January, 2013

Change the Weather History Date:

Sunday, January 6, 2013

  Actual Average Record
Temperature  
Mean Temperature -10 °F -  
Max Temperature -7 °F -5 °F 33 °F (2005)
Min Temperature -14 °F -18 °F -41 °F (2001)
Degree Days  
Heating Degree Days 76    
Moisture  
Dew Point -14 °F    
Average Humidity 83    
Maximum Humidity 84    
Minimum Humidity 77    
Precipitation  
Precipitation 0.00 in - - ()
Sea Level Pressure  
Sea Level Pressure 29.88 in    
Wind  
Wind Speed 22 mph (NE)    
Max Wind Speed 29 mph    
Max Gust Speed 32 mph    
Visibility 5 miles    
Events Snow    
Averages and records for this station are not official NWS values.
T = Trace of Precipitation, MM = Missing Value Source: NWS Daily Summary

Daily Weather History Graph

Daily Weather History Graph

Search for Another Location

Airport or City:

Trip Planner

Search our weather history database for the weather conditions in past years. The results will help you decide how hot, cold, wet, or windy it might be!

Date:

Astronomy

Jan. 06, 2013 Rise Set
Actual Time 12:27 PM AKST 1:32 PM AKST
Civil Twilight 10:36 AM AKST 3:23 PM AKST
Nautical Twilight 8:54 AM AKST 5:05 PM AKST
Astronomical Twilight 7:36 AM AKST 6:24 PM AKST
Moon 5:06 AM AKST (1/6) 10:43 AM AKST (1/6)
Length of Visible Light 4h 47m
Length of Day
1h 04m
Waning Crescent, 31% of the Moon is Illuminated
Jan 6
Waning Crescent
Jan 11
New
Jan 18
First Quarter
Jan 26
Full
Feb 3
Last Quarter

Hourly Weather History & Observations

Time (AKST) Temp. Windchill Dew Point Humidity Pressure Visibility Wind Dir Wind Speed Gust Speed Precip Events Conditions
12:53 AM -7.6 °F -35.7 °F -11.2 °F 84% 29.91 in 1.0 mi NE 28.8 mph - N/A Snow Blowing Snow
1:23 AM -7.6 °F -35.3 °F -11.2 °F 84% 29.91 in 1.0 mi NE 27.6 mph - N/A Snow Blowing Snow
1:53 AM -7.6 °F -34.8 °F -11.2 °F 84% 29.92 in 1.0 mi ENE 26.5 mph - N/A Snow Blowing Snow
2:14 AM -7.6 °F -34.8 °F -11.2 °F 84% 29.91 in 0.8 mi ENE 26.5 mph 32.2 mph N/A Snow Blowing Snow
2:53 AM -9.4 °F -36.3 °F -13.0 °F 84% 29.92 in 1.0 mi NE 24.2 mph - N/A Snow Blowing Snow
3:40 AM -9.4 °F -36.3 °F -13.0 °F 84% 29.91 in 1.2 mi NE 24.2 mph - N/A Snow Blowing Snow
3:53 AM -7.6 °F -33.9 °F -11.2 °F 84% 29.92 in 1.2 mi NE 24.2 mph - N/A Snow Blowing Snow
4:53 AM -7.6 °F -33.4 °F -13.0 °F 77% 29.91 in 1.0 mi NE 23.0 mph - N/A Snow Blowing Snow
5:53 AM -7.6 °F -33.4 °F -11.2 °F 84% 29.92 in 0.8 mi NE 23.0 mph - N/A Snow Blowing Snow
6:03 AM -7.6 °F -33.4 °F -11.2 °F 84% 29.90 in 1.0 mi NE 23.0 mph - N/A Snow Blowing Snow
6:53 AM -7.6 °F -33.9 °F -11.2 °F 84% 29.91 in 1.0 mi NE 24.2 mph - N/A Snow Blowing Snow
7:29 AM -7.6 °F -32.3 °F -11.2 °F 84% 29.90 in 5.0 mi NE 20.7 mph - N/A Snow Blowing Snow
7:53 AM -7.6 °F -33.4 °F -11.2 °F 84% 29.90 in 5.0 mi NE 23.0 mph - N/A Snow Blowing Snow
8:53 AM -9.4 °F -34.7 °F -13.0 °F 84% 29.91 in 4.0 mi NE 20.7 mph - N/A Snow Blowing Snow
9:53 AM -9.4 °F -34.1 °F -13.0 °F 84% 29.90 in 6.0 mi NE 19.6 mph - N/A Snow Blowing Snow
10:53 AM -9.4 °F -34.7 °F -13.0 °F 84% 29.89 in 6.0 mi NE 20.7 mph - N/A   Clear
11:53 AM -9.4 °F -34.1 °F -14.8 °F 77% 29.88 in 6.0 mi NE 19.6 mph - N/A Snow Blowing Snow
12:53 PM -11.2 °F -35.8 °F -14.8 °F 84% 29.88 in 7.0 mi NE 18.4 mph - N/A   Clear
1:53 PM -11.2 °F -34.4 °F -14.8 °F 84% 29.89 in 6.0 mi NE 16.1 mph - N/A Snow Blowing Snow
2:53 PM -11.2 °F -35.8 °F -16.6 °F 77% 29.87 in 7.0 mi NE 18.4 mph - N/A   Clear
3:53 PM -13.0 °F -36.8 °F -16.6 °F 84% 29.87 in 7.0 mi NE 16.1 mph - N/A   Clear
4:53 PM -13.0 °F -37.5 °F -16.6 °F 84% 29.86 in 10.0 mi NE 17.3 mph - N/A   Partly Cloudy
5:24 PM -13.0 °F -34.3 °F -16.6 °F 84% 29.86 in 10.0 mi NE 12.7 mph - N/A   Mostly Cloudy
5:53 PM -13.0 °F -36.8 °F -16.6 °F 84% 29.86 in 9.0 mi NNE 16.1 mph - N/A   Overcast
6:03 PM -11.2 °F -33.7 °F -14.8 °F 84% 29.85 in 9.0 mi NNE 15.0 mph - N/A   Overcast
6:53 PM -11.2 °F -27.8 °F -14.8 °F 84% 29.85 in 10.0 mi NE 8.1 mph - N/A   Overcast
7:53 PM -13.0 °F -36.0 °F -16.6 °F 84% 29.85 in 10.0 mi NNE 15.0 mph - N/A   Scattered Clouds
8:53 PM -13.0 °F -35.2 °F -18.4 °F 77% 29.84 in 10.0 mi NE 13.8 mph - N/A   Clear
9:53 PM -14.8 °F -36.6 °F -18.4 °F 84% 29.83 in 10.0 mi NE 12.7 mph - N/A   Clear
10:53 PM -14.8 °F -35.6 °F -18.4 °F 84% 29.83 in 10.0 mi NE 11.5 mph - N/A   Partly Cloudy
11:53 PM -14.8 °F -36.6 °F -18.4 °F 84% 29.83 in 10.0 mi NNE 12.7 mph - N/A   Clear